Regional Weather Roundup
Issued by NWS State College, PA

Home | Current Version | Previous Version | Text Only | Print | Product List | Glossary On
Versions: 1 2 3 4 5 6 7 8 9 10 11 12 13 14 15 16 17 18 19 20 21 22 23 24 25 26 27 28 29 30 31 32 33 34 35 36 37 38 39 40 41 42 43 44 45 46 47 48 49 50
000
ASUS41 KCTP 030203
RWRCTP

REGIONAL WEATHER ROUNDUP
NATIONAL WEATHER SERVICE STATE COLLEGE PA
1000 PM EDT MON MAY 02 2016

Note: "fair" indicates few or no clouds below 12,000 feet with no
significant weather and/or obstructions to visibility.

* = STATION THAT DOES NOT REPORT PRECIPITATION /E.G. RAIN...SNOW...ETC/
    THUNDER OR FOG.

PAZ002>004-007>009-013>016-020>023-029>032-030300-
WESTERN PENNSYLVANIA

CITY           SKY/WX    TMP DP  RH WIND       PRES   REMARKS
ERIE           CLOUDY    45  41  86 CALM      29.98R
MEADVILLE      CLOUDY    42  41  96 CALM      29.96R
FRANKLIN*      CLOUDY    46  43  87 N5        29.96S
NEW CASTLE     CLOUDY    48  44  86 N6        29.95F
BEAVER COUNTY  NOT AVBL
BUTLER*        CLOUDY    52  45  76 N6        29.95S
PITTSBURGH INT CLOUDY    54  47  77 N9        29.92S
PITTSBURGH     CLOUDY    55  50  83 NW6       29.91S
INDIANA*       CLOUDY    57  55  94 CALM      29.94R
LATROBE        CLOUDY    55  55 100 CALM      29.91F
WASHINGTON CO* CLOUDY    54  48  82 N6        29.92S
$$

PAZ004>006-010>012-017>019-024>028-033>037-041-042-045-046-049>053-030300-
CENTRAL PENNSYLVANIA

CITY           SKY/WX    TMP DP  RH WIND       PRES   REMARKS
BRADFORD       CLOUDY    48  44  86 N5        29.93S
DUBOIS         CLOUDY    52  47  83 N6        29.90F
CLEARFIELD     MOCLDY    58  48  69 N5        29.90F
JOHNSTOWN      LGT RAIN  56  47  71 NW5       29.90S
ALTOONA        CLOUDY    59  53  80 N3        29.90F
STATE COLLEGE  CLOUDY    60  53  76 CALM      29.89F
WILLIAMSPORT   LGT RAIN  56  47  71 NE3       29.92S
SELINSGROVE    CLOUDY    59  51  75 N7        29.91R
FT INDIANTOWN  NOT AVBL
CAPITAL CITY   CLOUDY    63  56  78 NE5       29.89R
HARRISBURG     LGT RAIN  62  56  80 E7        29.88R
YORK           TSTM      62  60  93 E9        29.90R FOG
$$

PAZ038>040-043-044-047-048-054-055-060>062-067>071-030300-
EASTERN PENNSYLVANIA

CITY           SKY/WX    TMP DP  RH WIND       PRES   REMARKS
SCRANTON       CLOUDY    52  46  80 N6        29.95R
MOUNT POCONO   MOCLDY    48  44  86 N3        29.94R
ALLENTOWN      CLOUDY    56  53  90 N3        29.92R
QUAKERTOWN*    CLOUDY    55  55 100 CALM      29.92S
READING        CLOUDY    60  55  83 CALM      29.90R
LANCASTER      LGT RAIN  59  57  93 E9        29.88S FOG
COATESVILLE    RAIN      59  59 100 E10       29.92R
POTTSTOWN      TSTM      57  56  96 CALM      29.93R FOG
BLUE BELL      CLOUDY    55  54  94 CALM      29.92R
DOYLESTOWN     CLOUDY    54  53  97 CALM      29.92R
WILLOW GROVE   NOT AVBL
NORTH PHILA    CLOUDY    60  55  83 CALM      29.93R
PHILADELPHIA   CLOUDY    62  54  74 E5        29.91F
$$



USA.gov is the U.S. government's official web portal to all federal, state and local government web resources and services.